THORAD AGENA D DEB, 4438

Orbit data source: Space-Track

THORAD AGENA D DEB, 4438 is space debris in LEO originally from a launch on Tue, 30 Sep 1969 UTC launched from the Air Force Western Test Range (AFWTR). Debris objects in space refer to the collection of defunct objects orbiting the Earth. Examples of debris include non-operational satellites, rocket bodies, and fragments generated from explosions, collisions, or faulty payload assembly.

Loading next visibility...
Identifier
4438, 1969-082EK
Orbit
LEO
Country
Flag of USUS
Related business
Manufacturer
Unknown
Mission
Spacecraft
Bus & Motor
Unknown
Mass
Unknown
Launch date (UTC)
1969-09-30 (57 years ago)
Launch vehicle
Unknown
Launch site
Air Force Western Test Range (AFWTR)
Object type
Payload
Rocket body
Debris
Shape & HBR
Unknown shape, 0.1 m
Radar Cross Section
Small (<0.1 m²)

Expand to show TLE details & history
Last TLE update: 1 day ago

TLE from 1 day ago
0 THORAD AGENA D DEB
1  4438U 69082EK  26093.29954706  .00004901  00000-0  88519-3 0  9994
2  4438  70.0971  56.4951 0048977 265.4864  94.0683 14.66239051963707
Epoch: 2026-04-03T07:11Z
TLE epoch observation values (Epoch: 2026-04-03T07:11:20.865Z)
Latitude
-0.00008°
Longitude
117.02247°
Altitude
678.115 km
Speed
7.517 km/s
True Right ascension
03h 45m 58s
True Declination
0° 00' 00"
Sunlit
Object was in daylight at epoch
Visualization orbit readout
Latitude
Unknown
Longitude
Unknown
Altitude
Unknown
Speed
Unknown
Apparent Right ascension
Unknown
Apparent Declination
Unknown
Sunlit
N/A
Visualization observer readout
Local Sidereal Time
13:32:38
Azimuth
Unknown
Elevation
Unknown
Doppler factor
Unknown
Orbital elements
Apogee altitude
705.593 km
Perigee altitude
636.543 km
Semi-major axis
7,049.205 km
Eccentricity
0.0049
Inclination
70.0971°
RAAN
56.4951°
Arg. of periapsis
265.4864°
True anomaly
94.62787°
Mean anomaly
94.0683°
Eccentric anomaly
94.34811°
Mean motion
3.66719 °/min
Orbital period
98.17 mins
BSTAR
0.00088519

Documentation

Showing up to 5 results
|